Погода в Эскальдесе

Андорра     42°30′37″N   1°32′24″E
темп.,
°C
ветер,
м/с
пор.,
м/с
влажн.,
%
обл.,
%
осадки,
мм/ч
давл.,
гПа
погр.,
м
17 июня, чт
чт1723:00+11ююв127929 0.0 101731
02:00+10в1274100 0.0 101720
05:00+10зсз1272100 0.0 101740
08:00+11ююв2277100 0.4 101542
11:00+10ююв2390100 3.0 1015329
14:00+11ююв2490100 11.1 1014286
17:00+12ююв2393100 4.1 1013293
20:00+10юз56100100 11.7 1013479
18 июня, пт
пт1823:00+9юв019691 4.9 101670
02:00+10вюв119751 5.0 101556
05:00+8вюв0197100 0.0 101520
08:00+11ю1196100 0.0 1016118
11:00+15ююз34615 0.0 1016783
14:00+19ююз473912 0.0 10161575
17:00+20ююз46376 0.0 10151817
20:00+16ююз246668 0.0 1016178
19 июня, сб
сб1923:00+11юв1298100 0.6 102030
02:00+10в1298100 0.8 102040
05:00+10в128717 0.0 101921
08:00+12вюв128285 0.1 101886
11:00+14ююв238484 0.5 1018353
14:00+18ююз51564100 1.1 10162117
17:00+16ю4147682 1.4 10151657
20:00+14ю5197599 2.6 10142002
20 июня, вс
вс2023:00+11ю2393100 3.1 101556
02:00+10ююв3499100 6.8 1014163
05:00+10ююз349999 6.6 1012251
08:00+9ююз359880 8.3 1014229
11:00+13ююз51161100 0.0 10131225
14:00+16ююз5113696 0.0 10111542
17:00+15юз354172 0.0 10111410
20:00+13ююз33581 0.0 1012924
21 июня, пн
пн2123:00+7ю12895 0.0 101429
02:00+7ю128911 0.0 101432
05:00+9ююв127353 0.0 101341
08:00+10ю24755 0.0 1013395
11:00+14ююз47537 0.0 10121508
14:00+16ююз4744100 0.0 10111952
17:00+16ююз45425 0.0 10111935
20:00+13зюз235529 0.1 10121027